Location: Unspecified
(0.0000°N, 0.0000°E)
Time: 21:57:31
(UTC+00:00)

Hubble Space Telescope - Pass Details

Date: 26 May 2017
Orbit: 537 x 541 km, 28.5° (Epoch: 17 October)

Event Time Altitude Azimuth Distance (km) Brightness Sun altitude
Rises 18:21:04 0° 255° (WSW) 2,672 5.3 -5.6°
Reaches altitude 10° 18:23:27 10° 264° (W) 1,781 4.6 -6.1°
Maximum altitude 18:27:14 35° 330° (NNW) 875 2.4 -7.0°
Drops below altitude 10° 18:31:01 10° 37° (NE) 1,779 3.3 -7.9°
Sets 18:33:25 0° 46° (NE) 2,669 4.1 -8.5°
